STARLINK-35104, 65631

Orbit data source: Space-Track

STARLINK-35104, 65631 is a payload satellite owned by SpaceX/Seattle (US) in LEO that was launched on Thu, 18 Sep 2025 UTC via an FALCON 9 launch vehicle from the Air Force Eastern Test Range (AFETR). Payload-class satellites include a variety of spacecraft equipped with specific instruments for various scientific and technological missions. These include communications satellites like Starlink; space stations such as the ISS; scientific satellites like the Hubble; Earth observation satellites from companies like Planet Labs, Umbra, and HawkEye 360; GPS; miniature CubeSats for education and research; and military/defense satellites.

Loading next visibility...
Identifier
65631, 2025-210K
Orbit
LEO
Country
Flag of USUS
Related business
Manufacturer
SpaceX/Seattle
Mission
Operational Commercial Communications
Bus & Motor
STARLINK V2MO, Unknown motor
Mass
575 kg wet, ~530 kg dry
Launch date (UTC)
2025-09-18 (9 months ago)
Launch vehicle
FALCON 9
Launch site
Air Force Eastern Test Range (AFETR)
Object type
Payload
Rocket body
Debris
Shape & HBR
Box + 2 Pan, 17.7 m
Radar Cross Section
36.964 m², Large (>1 m²)

Expand to show TLE details & history
Last TLE update: 12 hours ago

TLE from 12 hours ago
0 STARLINK-35104
1 65631U 25210K   26171.33952610  .00016359  00000-0  49403-3 0  9994
2 65631  53.1566 188.4077 0001215  68.7415 291.3718 15.34413440 43461
Epoch: 2026-06-20T08:08Z
TLE epoch observation values (Epoch: 2026-06-20T08:08:55.055Z)
Latitude
0.00006°
Longitude
157.62279°
Altitude
463.261 km
Speed
7.636 km/s
True Right ascension
12h 33m 37s
True Declination
0° 00' 00"
Sunlit
Object was in daylight at epoch
Visualization orbit readout
Latitude
Unknown
Longitude
Unknown
Altitude
Unknown
Speed
Unknown
Apparent Right ascension
Unknown
Apparent Declination
Unknown
Sunlit
N/A
Visualization observer readout
Local Sidereal Time
07:11:42
Azimuth
Unknown
Elevation
Unknown
Doppler factor
Unknown
Orbital elements
Apogee altitude
463.752 km
Perigee altitude
462.09 km
Semi-major axis
6,841.058 km
Eccentricity
0.00012
Inclination
53.1566°
RAAN
188.4077°
Arg. of periapsis
68.7415°
True anomaly
291.35883°
Mean anomaly
291.3718°
Eccentric anomaly
291.36532°
Mean motion
3.83582 °/min
Orbital period
93.85 mins
BSTAR
0.00049403
Loading maneuver chart data...
Computing Atmospheric mass density...
Loading historical data...
Loading historical data...
Loading historical data...
Loading historical data...
Loading historical data...
Loading historical data...
Loading historical data...

Documentation

Showing up to 5 results
|